Torna al catalogo

STARLINK-30716

AttivoComunicazioniVLEO
NORAD 57936·PAYLOAD·🇺🇸 United States

Lanciato Sep 25, 2023 da Vandenberg Space Force Base

Loading…

Prossimi Passaggi (prossime 24 ore)

TLE

AggiornatoSource: CelesTrak SupGP

Epoca: Sep 14, 2026, 22:32 UTC

1 57936C 23148B   26257.93937500  .00016206  00000+0  47872-3 0  2578
2 57936  53.1579 223.7624 0001368  99.4613  21.7154 15.34388695    11

Traccia STARLINK-30716 in tempo reale con AllMySat

Download on the App Store